C/2022 O1 ( ATLAS )

Japanese version
Home page
Updated on November 13, 2022

---------------------------------------------------------------------

* Profile

Discovery Date July 26, 2022
Magnitude 19.3 mag
Discoverer Asteroid Terrestrial-Impact Last Alert System (ATLAS) search program

* Orbital Elements

Epoch 2022 Aug. 9.0 TT = JDT 2459800.5
T 2022 Feb. 15.73704 TT                                 Rudenko
q   7.4303352            (2000.0)            P               Q
z  -0.0006721      Peri.  268.89875     +0.23605689     +0.64870563
 +/-0.0000009      Node    49.90559     +0.17074878     +0.70527126
e   1.0049940      Incl.   71.04543     -0.95662009     +0.28596058
>From 122 observations 2022 July 26-Nov. 1, mean residual 0".5.

* Magnitudes Graph

        m1 = 5.5 + 5 log d + 10.0 log r

---------------------------------------------------------------------

The orbital elements are published on M.P.E.C. 2022-V125.
The magnitudes graphs are made with Comet for Windows.

---------------------------------------------------------------------

Copyright(C) Seiichi Yoshida (comet@aerith.net). All rights reserved.